[[{"header":{"parameterUnit":"m.s-1","parameterCategory":1,"la1":30.2991,"la2":30.254,"lo1":-89.0895,"lo2":-89.0444,"dy":0.0017,"dx":0.0017,"nx":28,"ny":28,"refTime":"2024-02-01T03:00:00:Z","depth":0,"parameterNumber":2,"parameterNumberName":"U-component_of_WINDS"},"data":[0,0,0,0,0,0,0,0,0,0,0,0,0,0,0,0,0,0,0,0,0,0,0,0,0,0,0,0,0,0,0,0,0,0,0,0,0,0,0,0,0,0,0,0,0,0,0,0,0,0,0,0,0,0,0,0,0,0,-0.0422,-0.0421,0,-0.0348,-0.0348,-0.0347,-0.03,-0.0299,-0.0299,-0.0299,-0.0223,-0.0221,-0.0219,0,0,0,0,0,0,0,0,0,0,0,0,0,-0.0523,-0.0521,-0.0422,-0.0421,-0.042,-0.0349,-0.0348,-0.0347,-0.03,-0.0299,-0.0299,-0.0299,-0.0223,-0.0221,-0.0219,0,0,0,0,0,0,0,0,0,0,0,0,0,-0.0467,-0.0521,-0.0422,-0.0388,-0.0384,-0.0349,-0.0348,-0.0346,-0.03,-0.0299,-0.0299,-0.0299,-0.0224,-0.0221,-0.0219,-0.0211,0,0,-0.0211,-0.0209,0,0,0,0,0,0,0,0,-0.047,-0.0463,-0.0394,-0.0391,-0.0386,-0.0333,-0.0355,-0.0301,-0.03,-0.0332,-0.0299,-0.0298,-0.026,-0.0254,-0.0241,-0.0207,-0.0204,-0.021,-0.0209,-0.0208,-0.0207,0,0,0,0,0,0,0,-0.0474,-0.0466,-0.0393,-0.0393,-0.0388,-0.0377,-0.0368,-0.0345,-0.0299,-0.0329,-0.0325,-0.0317,-0.0257,-0.0244,-0.0239,-0.0203,-0.021,-0.0208,-0.0206,-0.0205,-0.016,-0.016,0,0,0,0,0,0,-0.0483,-0.047,-0.0395,-0.0391,-0.0428,-0.0375,-0.0366,-0.035,-0.0299,-0.0291,-0.0318,-0.0316,-0.0248,-0.0242,-0.0236,-0.0224,-0.0208,-0.0205,-0.0204,-0.016,-0.016,-0.0161,0,0,0,0,0,0,-0.0486,-0.0477,-0.0398,-0.0429,-0.0418,-0.0374,-0.0357,-0.0349,-0.0335,-0.0291,-0.0282,-0.0312,-0.0248,-0.024,-0.0218,-0.022,-0.0204,-0.0202,-0.0159,-0.016,-0.016,-0.0199,0,0,0,0,0,0,-0.0489,-0.0478,-0.0475,-0.043,-0.0417,-0.0381,-0.0357,-0.0348,-0.0331,-0.0327,-0.0283,-0.0275,-0.0247,-0.0222,-0.0215,-0.0216,-0.0199,-0.0159,-0.016,-0.016,-0.0197,-0.0201,-0.0204,0,0,0,0,0,-0.0493,-0.0488,-0.0475,-0.0466,-0.0411,-0.0381,-0.0374,-0.0341,-0.0332,-0.0328,-0.0299,-0.0277,-0.0222,-0.022,-0.0212,-0.0213,-0.0158,-0.0159,-0.016,-0.0196,-0.02,-0.0204,0,0,0,0,0,0,-0.0534,-0.0481,-0.0466,-0.0447,-0.0419,-0.0373,-0.0367,-0.0347,-0.0321,-0.0319,-0.0279,-0.027,-0.0252,-0.023,-0.0229,-0.0203,-0.0188,-0.0187,-0.0217,-0.0221,-0.0225,-0.023,-0.0197,0,0,0,0,0,-0.0541,-0.0521,-0.0476,-0.0463,-0.045,-0.0412,-0.0397,-0.0375,-0.0344,-0.0332,-0.0302,-0.0273,-0.0249,-0.0234,-0.021,-0.0195,-0.0185,-0.0191,-0.0195,-0.0198,-0.0197,-0.0188,-0.0191,-0.0163,-0.0163,-0.0163,0,0,-0.0555,-0.0524,-0.0513,-0.0471,-0.0447,-0.0427,-0.0402,-0.0382,-0.0367,-0.0329,-0.0306,-0.0284,-0.0249,-0.0231,-0.0221,-0.0212,-0.0203,-0.0199,-0.0201,-0.0199,-0.0189,-0.0192,-0.0194,-0.0164,-0.0164,-0.0164,0,0,-0.057,-0.0544,-0.0531,-0.0508,-0.0472,-0.0446,-0.0444,-0.0401,-0.0385,-0.0362,-0.0333,-0.0315,-0.0275,-0.0252,-0.0235,-0.0244,-0.0222,-0.0237,-0.0253,-0.0245,-0.0248,-0.0249,-0.0252,-0.0254,-0.0237,-0.0237,-0.0237,0,-0.0591,-0.056,-0.0527,-0.0509,-0.0491,-0.0457,-0.0444,-0.0423,-0.0381,-0.037,-0.0361,-0.031,-0.0285,-0.0261,-0.0263,-0.025,-0.0246,-0.0241,-0.025,-0.0251,-0.0252,-0.0255,-0.0256,-0.0239,-0.0238,-0.0238,-0.0238,0,-0.0589,-0.0568,-0.0562,-0.0523,-0.0505,-0.0489,-0.0454,-0.044,-0.042,-0.0396,-0.0373,-0.0341,-0.031,-0.0303,-0.0283,-0.0277,-0.0273,-0.0258,-0.0241,-0.0258,-0.0259,-0.026,-0.0242,-0.0241,-0.024,-0.024,0,0,-0.0625,-0.057,-0.0568,-0.055,-0.0509,-0.0492,-0.0476,-0.0446,-0.0435,-0.0408,-0.0393,-0.0361,-0.0347,-0.0328,-0.0305,-0.0298,-0.0308,-0.0284,-0.0282,-0.0289,-0.03,-0.0311,-0.0312,-0.0294,-0.0294,-0.0294,-0.0302,0,-0.0634,-0.0602,-0.0573,-0.0552,-0.0533,-0.0501,-0.0487,-0.0461,-0.0438,-0.0419,-0.0394,-0.0372,-0.0355,-0.0343,-0.0335,-0.0308,-0.0309,-0.0307,-0.028,-0.0279,-0.0289,-0.0313,-0.0324,-0.0334,-0.0303,-0.0303,-0.0303,0,-0.0639,-0.0614,-0.0591,-0.0553,-0.0544,-0.0532,-0.0503,-0.0485,-0.0455,-0.0439,-0.0419,-0.0395,-0.0377,-0.0364,-0.0338,-0.0338,-0.0325,-0.0311,-0.031,-0.0306,-0.0291,-0.0309,-0.0336,-0.0337,-0.0304,-0.0304,-0.0304,0,-0.0668,-0.0629,-0.061,-0.0596,-0.0551,-0.0543,-0.0525,-0.0494,-0.0479,-0.0454,-0.0443,-0.0417,-0.0402,-0.0382,-0.0352,-0.0345,-0.033,-0.0314,-0.0316,-0.0317,-0.0313,-0.0314,-0.0338,-0.0307,-0.0307,-0.0307,-0.0307,0,-0.068,-0.0667,-0.0623,-0.0611,-0.0597,-0.0563,-0.055,-0.0528,-0.0502,-0.0486,-0.0458,-0.0444,-0.0405,-0.0387,-0.0364,-0.0346,-0.034,-0.0327,-0.0321,-0.0329,-0.0331,-0.0319,-0.0317,-0.0307,-0.0307,-0.0307,-0.0307,0,-0.0709,-0.0678,-0.0656,-0.0616,-0.0606,-0.0597,-0.0563,-0.0551,-0.0528,-0.0509,-0.0502,-0.0466,-0.0443,-0.0411,-0.0378,-0.0363,-0.0349,-0.0339,-0.0359,-0.0355,-0.0359,-0.0359,-0.0376,-0.0377,-0.0346,-0.0346,-0.0347,0,-0.0718,-0.0708,-0.0667,-0.0655,-0.0637,-0.0617,-0.0601,-0.0569,-0.0554,-0.052,-0.0512,-0.0488,-0.0465,-0.0431,-0.0401,-0.0376,-0.0366,-0.0374,-0.0362,-0.0371,-0.0365,-0.0366,-0.0365,-0.0376,-0.0377,-0.0377,-0.0377,0,-0.0737,-0.0723,-0.0702,-0.0676,-0.0658,-0.0636,-0.0612,-0.0604,-0.0567,-0.0551,-0.0528,-0.0511,-0.0478,-0.0454,-0.0426,-0.0406,-0.0386,-0.0382,-0.0381,-0.0388,-0.04,-0.0394,-0.0366,-0.0381,-0.0381,-0.038,-0.038,-0.038,-0.0756,-0.0746,-0.0716,-0.0693,-0.0673,-0.0652,-0.0639,-0.0615,-0.0595,-0.0565,-0.0548,-0.0525,-0.0497,-0.0457,-0.0439,-0.0421,-0.0413,-0.0412,-0.0411,-0.0411,-0.0414,-0.0404,-0.0416,-0.0416,-0.0416,-0.0416,-0.0415,0,-0.0774,-0.0753,-0.0733,-0.0702,-0.0684,-0.0667,-0.0641,-0.0628,-0.0608,-0.0584,-0.0563,-0.0537,-0.0514,-0.0483,-0.0458,-0.045,-0.044,-0.0444,-0.0444,-0.044,-0.0423,-0.0426,-0.0453,-0.0453,-0.0453,-0.0453,-0.0453,-0.0453,-0.0781,-0.0763,-0.0745,-0.0717,-0.0697,-0.0675,-0.0661,-0.0642,-0.0622,-0.0594,-0.0575,-0.0556,-0.0529,-0.0502,-0.0481,-0.0473,-0.0465,-0.0472,-0.0461,-0.0445,-0.0441,-0.0438,-0.0441,-0.047,-0.047,-0.0479,-0.048,-0.048]},{"header":{"parameterUnit":"m.s-1","parameterCategory":1,"la1":30.2991,"la2":30.254,"lo1":-89.0895,"lo2":-89.0444,"dy":0.0017,"dx":0.0017,"nx":28,"ny":28,"refTime":"2024-02-01T03:00:00:Z","depth":0,"parameterNumber":3,"parameterNumberName":"V-component_of_WINDS"},"data":[0,0,0,0,0,0,0,0,0,0,0,0,0,0,0,0,0,0,0,0,0,0,0,0,0,0,0,0,0,0,0,0,0,0,0,0,0,0,0,0,0,0,0,0,0,0,0,0,0,0,0,0,0,0,0,0,0,0,1.506,1.5059,0,1.5008,1.5008,1.5007,1.5031,1.5032,1.5033,1.5034,1.4977,1.4974,1.4971,0,0,0,0,0,0,0,0,0,0,0,0,0,1.5174,1.5172,1.506,1.5059,1.5059,1.5009,1.5008,1.5007,1.503,1.5032,1.5033,1.5035,1.4977,1.4974,1.4971,0,0,0,0,0,0,0,0,0,0,0,0,0,1.5124,1.5171,1.506,1.5064,1.5064,1.5009,1.5008,1.5007,1.503,1.5032,1.5034,1.5036,1.4979,1.4975,1.497,1.4906,0,0,1.4958,1.4956,0,0,0,0,0,0,0,0,1.5126,1.5119,1.5064,1.5064,1.5064,1.5028,1.5027,1.4973,1.503,1.5043,1.5034,1.5037,1.4992,1.4987,1.4973,1.4903,1.4901,1.4958,1.4955,1.4953,1.4952,0,0,0,0,0,0,0,1.513,1.5122,1.504,1.5064,1.5063,1.5067,1.5062,1.5017,1.5007,1.5042,1.5043,1.5037,1.4992,1.4977,1.4971,1.49,1.4958,1.4954,1.4951,1.495,1.4775,1.4772,0,0,0,0,0,0,1.5134,1.5125,1.5041,1.5038,1.5101,1.5064,1.5058,1.5037,1.5007,1.5005,1.5036,1.5039,1.4983,1.4976,1.4969,1.4891,1.4953,1.4949,1.4947,1.4777,1.4774,1.4772,0,0,0,0,0,0,1.5136,1.5126,1.5043,1.5082,1.5071,1.506,1.5036,1.5035,1.502,1.5003,1.5001,1.5022,1.4984,1.4975,1.4922,1.489,1.4948,1.4944,1.4779,1.4776,1.4773,1.4735,0,0,0,0,0,0,1.514,1.5127,1.5104,1.5081,1.5069,1.4998,1.5034,1.5033,1.5013,1.5017,1.4989,1.4987,1.4985,1.4928,1.4918,1.4885,1.4941,1.4782,1.4778,1.4774,1.4739,1.4731,1.4724,0,0,0,0,0,1.5144,1.5094,1.5102,1.5092,1.504,1.4996,1.4989,1.4989,1.5011,1.4986,1.4975,1.4988,1.4895,1.4922,1.4911,1.4876,1.4784,1.4779,1.4774,1.4742,1.4732,1.4724,0,0,0,0,0,0,1.5111,1.5091,1.51,1.5042,1.5021,1.5,1.4969,1.4979,1.4949,1.4953,1.4953,1.4947,1.4891,1.4879,1.4909,1.4812,1.4843,1.4835,1.4822,1.4813,1.4805,1.4809,1.4937,0,0,0,0,0,1.5098,1.5065,1.5049,1.4999,1.4988,1.498,1.4961,1.4963,1.494,1.4931,1.4916,1.4892,1.4858,1.4835,1.4802,1.4738,1.4731,1.4709,1.4701,1.4695,1.4688,1.4652,1.4641,1.4756,1.4756,1.4756,0,0,1.5068,1.5053,1.5032,1.4992,1.4976,1.494,1.4972,1.4934,1.4907,1.4924,1.4873,1.4862,1.4835,1.4775,1.4749,1.4763,1.4655,1.4689,1.4684,1.468,1.4646,1.4635,1.4625,1.4752,1.4753,1.4753,0,0,1.4997,1.4983,1.494,1.4923,1.4899,1.4894,1.4884,1.4862,1.4855,1.4804,1.4817,1.4784,1.4725,1.4705,1.4688,1.461,1.4619,1.4599,1.4558,1.4523,1.4514,1.4506,1.4477,1.4467,1.4592,1.4592,1.4592,0,1.4963,1.4912,1.4916,1.4877,1.4858,1.4874,1.4829,1.4813,1.4778,1.4764,1.4781,1.4708,1.4691,1.4627,1.4608,1.4593,1.458,1.4601,1.4516,1.4508,1.45,1.4472,1.4461,1.459,1.459,1.459,1.4591,0,1.4871,1.4836,1.4803,1.4772,1.4749,1.4707,1.4703,1.468,1.4684,1.4677,1.4625,1.4605,1.4569,1.4554,1.4557,1.449,1.45,1.4516,1.4547,1.4487,1.446,1.445,1.4586,1.4587,1.4588,1.4589,0,0,1.4776,1.4748,1.4736,1.4722,1.4696,1.4668,1.4626,1.4593,1.4572,1.4548,1.4512,1.4462,1.4477,1.4457,1.4458,1.4428,1.4365,1.4448,1.4447,1.4432,1.4289,1.4275,1.4263,1.4373,1.4371,1.4369,1.4291,0,1.4702,1.4631,1.4634,1.4567,1.4533,1.4548,1.4512,1.4491,1.4484,1.4453,1.4444,1.4408,1.4432,1.442,1.4391,1.4379,1.4336,1.4385,1.4337,1.4335,1.4342,1.425,1.4235,1.4162,1.428,1.4279,1.4277,0,1.4606,1.458,1.451,1.449,1.4476,1.4443,1.4412,1.4383,1.436,1.4357,1.4335,1.4341,1.4297,1.433,1.4268,1.4302,1.4282,1.4274,1.4271,1.4265,1.4302,1.424,1.4139,1.4127,1.4262,1.4263,1.4264,0,1.4542,1.449,1.4442,1.4429,1.4404,1.4381,1.4369,1.4348,1.4327,1.43,1.4286,1.4253,1.4235,1.4208,1.4205,1.4229,1.4143,1.4176,1.4137,1.4137,1.4117,1.4118,1.401,1.4107,1.4107,1.4107,1.4107,0,1.4458,1.4415,1.4413,1.4382,1.4333,1.4336,1.4287,1.4277,1.4259,1.4226,1.4237,1.4205,1.4203,1.4171,1.4167,1.4116,1.4108,1.4103,1.4102,1.4101,1.4101,1.4087,1.4091,1.4104,1.4105,1.4105,1.4106,0,1.4378,1.4376,1.4323,1.4305,1.4299,1.4264,1.4247,1.4217,1.4212,1.417,1.416,1.415,1.4112,1.4107,1.4061,1.4059,1.3998,1.4003,1.4006,1.4006,1.3967,1.397,1.3845,1.3828,1.3937,1.3936,1.3936,0,1.4324,1.4291,1.427,1.4249,1.4237,1.4204,1.4183,1.4185,1.4162,1.4134,1.4107,1.4071,1.4041,1.398,1.3967,1.3933,1.3936,1.3895,1.3931,1.3931,1.3934,1.3935,1.3931,1.3887,1.3886,1.3885,1.3884,0,1.4228,1.4229,1.42,1.417,1.4145,1.4121,1.4099,1.4081,1.4079,1.4054,1.4016,1.3993,1.3948,1.3911,1.3877,1.3863,1.3872,1.3873,1.3862,1.386,1.3862,1.3859,1.3985,1.3876,1.3877,1.3877,1.3878,1.3878,1.4158,1.4129,1.411,1.4077,1.4061,1.404,1.4011,1.4002,1.3971,1.3936,1.3938,1.3896,1.3873,1.3829,1.3813,1.3779,1.3792,1.3776,1.3772,1.3768,1.3763,1.3869,1.3772,1.3773,1.3773,1.3773,1.3773,0,1.4062,1.405,1.402,1.3989,1.3963,1.3977,1.3952,1.3929,1.3892,1.3871,1.3843,1.3798,1.3763,1.3748,1.3713,1.3688,1.3692,1.3679,1.368,1.3676,1.3754,1.3767,1.3677,1.3677,1.3677,1.3677,1.3677,1.3677,1.4008,1.396,1.3958,1.3901,1.389,1.385,1.3835,1.3815,1.3798,1.3749,1.372,1.3712,1.3692,1.3656,1.3623,1.362,1.3605,1.359,1.3588,1.3661,1.3671,1.368,1.3692,1.3587,1.3587,1.3513,1.3512,1.3512]}]]